Theta_e
308 309 308 308 308 308 308 308 308 308 308 308 308 308 308 308 309 309 309 309 309 310 310 310 309 309 309 309 309 310 311 313 313 313 313 315 314 313 313 313 313 313 314 314 313 313 314 315 315 315 316 316 316 318 318 318 317 318 320 318 316 317 318 318 318 317 315 316 316 315 313 314 316 313 312 311 311 313 313 314 313 313 313 314 315 313 311 311
309 309 309 308 308 308 308 308 308 308 308 308 308 308 308 308 308 309 309 309 309 309 310 310 310 310 309 309 309 310 312 313 313 313 314 314 314 314 313 313 313 313 314 314 313 314 314 314 315 315 316 316 316 317 318 318 318 319 320 318 317 319 318 317 317 316 315 316 316 315 312 312 314 314 312 312 315 314 314 315 315 314 314 314 315 313 311 311
309 308 308 308 308 308 308 308 308 308 308 308 308 308 308 308 308 308 308 309 309 309 309 309 310 310 310 310 310 311 312 312 313 314 314 315 315 315 315 314 313 313 314 314 314 314 313 313 315 315 315 315 315 317 318 318 318 319 318 318 318 320 318 315 315 315 315 314 315 315 312 311 312 313 312 313 315 315 315 316 316 316 315 316 315 314 313 312
308 308 308 307 307 307 307 308 308 308 307 307 307 307 307 307 308 308 308 308 308 309 309 309 309 309 309 310 311 312 312 313 314 314 315 315 315 315 316 315 314 314 314 314 314 313 312 313 314 314 315 315 315 316 318 318 319 318 317 319 319 318 317 316 315 314 314 312 313 314 313 313 312 311 311 313 314 315 316 316 316 316 316 316 316 316 315 314
308 308 308 307 307 307 308 308 308 307 307 307 307 307 307 307 307 307 308 308 308 308 308 309 308 308 308 309 311 312 313 315 315 315 315 315 315 315 316 316 314 314 314 313 313 312 312 314 313 314 314 315 316 316 317 317 317 317 317 319 319 316 316 317 315 314 313 311 311 312 313 314 312 310 312 313 314 316 316 316 317 316 316 316 315 316 316 315
308 308 308 308 308 309 309 309 308 308 308 308 308 307 307 307 307 307 308 308 308 308 308 308 308 308 307 309 312 312 313 314 314 316 316 315 316 314 315 316 314 314 314 313 313 313 313 313 313 314 314 314 315 315 315 316 315 317 318 318 318 316 316 317 315 314 311 311 313 313 314 313 312 313 313 313 314 315 316 316 316 316 316 316 314 314 314 314
309 309 308 309 309 309 309 310 310 310 310 310 309 309 309 309 309 309 309 308 309 309 309 309 309 308 307 309 313 313 313 314 313 315 315 315 315 314 316 315 314 314 313 313 313 313 313 312 313 314 314 314 315 314 314 315 314 316 317 316 316 316 316 316 315 313 312 312 314 313 313 313 314 315 314 313 314 314 315 315 315 316 316 315 312 312 312 313
311 310 310 310 310 310 310 310 311 311 311 310 310 311 310 310 310 310 310 310 311 310 310 310 309 309 307 310 315 313 312 314 314 314 314 315 315 314 316 315 314 314 313 314 313 314 313 312 313 313 314 314 314 314 313 314 315 315 316 316 315 314 314 315 313 312 312 312 313 312 313 314 315 314 313 312 313 314 314 315 314 315 315 313 311 311 312 312
312 311 310 310 311 311 310 311 311 311 310 310 310 311 311 311 311 311 311 311 312 312 312 311 310 310 310 311 313 311 312 314 313 314 313 313 314 314 315 315 315 314 313 313 313 313 313 313 313 312 313 314 312 313 312 313 315 315 316 316 315 314 314 313 311 312 312 312 312 312 313 315 314 312 312 313 313 314 314 314 314 314 313 312 311 311 311 311
312 311 311 311 311 311 311 311 311 311 311 311 310 310 310 310 310 310 311 311 311 312 312 312 311 311 311 311 311 311 313 314 313 314 313 313 314 315 315 316 315 314 313 312 312 313 314 314 314 312 313 312 311 312 311 312 312 312 313 313 313 313 312 311 311 311 311 311 311 312 313 314 312 310 313 314 313 313 313 313 313 313 312 311 311 311 311 311
313 313 312 312 311 311 311 311 313 313 312 311 311 311 310 310 309 309 309 310 310 310 311 311 311 311 310 311 312 312 313 313 313 314 314 314 314 315 316 315 314 314 314 312 312 313 313 313 312 312 312 311 311 310 310 310 310 309 309 311 312 312 312 310 310 310 310 310 310 311 312 313 312 310 312 314 312 311 311 312 312 312 312 312 311 311 311 311
313 313 312 311 311 311 312 314 316 315 314 313 314 314 312 311 310 309 309 308 308 309 309 310 311 310 310 311 312 313 312 311 312 313 313 314 315 316 316 316 315 314 314 313 312 312 311 311 311 312 311 311 311 310 309 309 309 308 309 311 312 312 312 312 312 310 310 310 309 309 311 312 312 311 312 313 312 311 310 311 312 312 312 312 312 312 311 311
314 313 312 311 312 313 315 317 318 316 315 316 316 315 312 311 310 310 309 309 308 308 307 308 310 309 310 314 313 312 312 310 310 311 313 314 315 316 315 316 315 314 314 313 312 311 310 310 312 311 310 310 311 309 308 307 307 309 309 310 311 312 312 312 312 309 308 309 308 309 310 312 313 313 313 313 311 310 310 311 311 312 312 312 312 311 311 312
313 312 311 312 313 314 316 318 319 317 317 318 317 314 313 311 311 309 309 309 309 308 308 308 309 309 310 314 312 311 312 310 309 310 311 314 314 314 313 314 314 313 313 311 310 310 310 310 311 310 308 310 310 308 309 309 308 310 310 310 311 312 313 312 310 307 308 309 308 309 310 311 313 314 314 312 310 309 310 310 311 311 312 312 312 311 311 312
313 312 312 313 314 315 316 318 319 318 319 319 317 314 313 312 311 310 310 311 310 309 309 309 309 309 310 312 311 311 312 311 310 310 310 312 313 312 311 311 312 312 311 310 310 309 309 309 310 310 309 308 309 309 311 311 310 310 310 312 313 312 312 313 311 309 310 309 306 309 311 311 313 313 313 311 308 308 309 310 311 311 311 311 311 311 311 311
313 312 312 313 314 315 316 318 319 319 319 319 318 315 312 312 312 311 312 310 310 310 310 311 309 308 311 312 311 311 311 312 312 311 310 311 312 312 310 310 310 310 309 309 310 309 308 309 309 310 309 308 310 311 311 312 312 312 311 313 314 313 312 313 312 311 310 309 307 308 310 312 312 313 313 311 309 309 309 310 311 311 311 311 311 311 311 311
313 312 312 313 314 314 315 317 318 319 319 319 317 313 312 313 312 311 310 310 311 310 310 312 309 308 312 311 310 311 310 311 311 311 311 310 311 311 310 309 309 309 309 309 309 309 309 310 308 309 310 310 310 311 313 314 314 313 313 313 313 313 312 311 312 312 309 308 309 309 309 310 311 312 312 311 311 310 310 310 311 311 311 311 312 311 311 311
313 312 312 312 313 313 314 316 317 318 319 319 316 313 314 314 312 311 311 310 310 310 310 310 309 312 314 311 310 311 309 309 310 311 311 310 310 310 310 309 309 310 310 310 309 309 309 310 309 311 312 310 310 312 314 315 315 314 314 314 313 312 311 311 312 312 310 309 310 309 309 310 310 310 311 311 311 310 310 310 311 311 311 311 312 312 312 312
316 315 314 313 313 313 314 315 316 318 319 320 316 311 314 314 311 311 311 310 311 313 314 312 311 315 316 312 310 310 309 310 311 311 310 310 309 309 310 309 310 311 311 311 311 310 310 311 311 313 314 313 312 312 314 316 315 314 313 313 312 312 311 311 311 311 310 309 310 310 310 311 311 311 311 311 311 311 311 311 311 311 311 312 312 312 313 313
319 319 318 317 314 313 314 315 316 318 318 320 316 311 315 316 315 314 311 310 313 314 315 312 311 313 314 313 311 310 311 310 310 310 310 309 309 309 309 309 311 311 311 313 313 310 310 313 313 314 315 315 314 313 313 314 312 311 312 312 312 312 312 312 312 311 309 308 310 310 311 311 311 311 311 311 311 311 311 311 311 312 312 312 312 313 314 312
322 321 320 319 316 316 317 317 318 319 318 319 317 314 316 315 317 317 312 314 315 312 312 312 311 312 313 312 310 310 311 310 310 311 309 308 309 311 310 309 311 312 312 313 312 308 309 313 315 314 315 314 313 312 311 312 311 311 312 312 313 313 313 312 312 312 309 308 310 310 310 311 311 311 311 311 311 311 311 312 312 312 312 313 313 314 313 312
323 322 322 321 321 321 321 320 321 320 318 319 317 313 312 310 311 311 310 315 316 311 310 310 309 310 310 310 308 309 310 310 311 311 309 308 309 312 311 310 312 313 311 311 311 310 311 313 314 313 313 311 309 309 309 310 311 311 312 312 313 313 313 312 311 310 308 308 310 311 310 310 310 311 311 311 311 311 311 312 312 312 313 313 313 312 311 312
324 322 322 322 322 323 323 323 322 319 319 318 315 313 312 310 308 307 309 313 314 312 310 309 309 308 309 309 308 309 310 311 311 311 310 309 309 310 311 311 312 312 311 311 313 315 315 314 313 313 312 310 309 308 308 309 310 311 312 313 313 313 314 313 311 309 307 308 310 310 310 311 312 312 312 312 311 311 312 311 312 313 313 313 312 311 310 311
324 322 322 323 322 323 323 322 320 319 319 317 315 315 312 310 307 307 310 312 314 314 310 308 309 309 309 309 308 309 310 310 310 310 310 309 309 309 310 311 311 311 311 312 313 315 316 312 309 311 311 310 311 310 309 311 312 313 313 313 313 313 313 312 311 310 309 310 309 309 312 313 314 315 314 313 311 311 312 312 312 313 312 312 311 310 311 312
324 323 323 323 324 323 322 321 319 320 320 316 315 316 313 311 308 307 311 315 317 315 310 308 309 308 307 307 308 309 309 309 308 308 308 309 309 309 309 309 310 312 313 312 312 313 314 310 308 310 310 309 311 311 311 312 312 314 314 313 312 312 312 312 313 311 311 313 310 310 314 315 314 315 315 314 314 314 315 314 313 313 312 311 311 311 311 312
324 324 324 324 324 323 321 320 319 321 321 316 316 317 314 313 309 307 311 317 321 319 313 310 310 309 307 306 307 308 310 310 306 305 307 308 308 309 309 309 308 310 311 310 311 312 311 308 308 311 312 311 311 310 311 312 312 313 315 314 311 311 312 312 313 312 312 314 310 309 313 315 314 314 314 315 314 315 316 315 314 313 311 310 311 311 311 311
324 324 324 324 324 323 322 321 321 322 322 318 318 318 315 314 309 307 312 321 324 319 314 311 309 309 307 305 305 308 312 310 306 306 307 308 308 308 309 310 309 308 307 309 312 312 310 309 309 310 312 312 311 311 312 311 311 314 316 315 313 311 312 312 312 311 312 312 311 310 311 314 315 314 313 314 314 315 316 316 316 313 310 310 310 310 310 310
324 324 324 324 324 323 322 322 322 323 322 321 320 319 317 313 308 308 317 328 326 317 312 310 308 308 307 305 304 307 308 306 308 309 305 306 308 307 309 310 310 310 307 309 315 312 309 311 311 310 311 311 312 313 314 312 311 313 312 310 310 310 311 311 311 311 310 310 312 312 312 314 316 314 312 312 313 315 316 315 315 312 310 309 309 309 308 308
323 323 323 323 323 323 322 322 322 322 322 321 320 320 318 313 309 312 321 327 324 315 311 310 308 307 307 307 306 306 305 305 308 308 305 306 307 306 309 308 308 310 307 308 313 312 309 308 309 311 312 312 312 311 311 312 312 311 309 309 310 310 309 310 311 311 310 312 315 314 312 316 318 316 313 313 313 316 317 314 312 309 309 309 309 307 306 306
321 321 322 322 322 322 322 322 322 322 322 321 321 320 317 314 313 319 324 324 321 316 311 310 310 308 307 309 309 307 307 307 307 307 307 307 307 306 305 304 305 308 308 307 310 311 307 304 305 309 311 310 310 307 306 311 312 309 309 311 312 310 309 309 309 310 312 316 317 314 313 316 317 317 315 315 313 313 314 313 311 308 307 308 307 305 304 303
318 319 320 321 321 321 321 322 322 321 321 321 320 319 319 319 321 324 325 321 319 317 312 310 311 309 309 313 314 311 308 308 307 308 309 308 308 308 307 307 308 309 311 310 311 311 308 306 307 310 310 309 309 308 306 307 308 309 310 311 312 312 311 310 310 310 315 320 316 313 313 315 317 317 314 314 313 311 311 312 312 309 306 306 305 303 302 301
316 317 319 320 320 320 320 321 321 321 321 320 319 320 323 324 324 325 323 319 319 319 315 313 312 311 311 313 316 314 311 310 309 309 311 312 311 311 311 313 312 313 315 313 313 314 312 311 310 310 308 308 310 311 308 307 307 308 309 310 312 315 316 317 316 314 317 319 312 309 312 314 316 316 313 314 315 312 310 310 309 307 305 304 303 302 301 299
313 314 316 318 320 320 319 320 320 320 321 320 320 323 324 324 324 324 323 321 321 319 315 314 313 312 312 315 319 315 313 314 310 308 312 312 311 313 314 314 313 316 316 313 314 316 317 316 311 310 309 308 309 310 311 311 309 309 310 311 315 318 321 323 321 318 319 318 310 307 311 313 315 315 314 314 314 310 307 307 306 305 304 302 301 300 299 298
311 312 314 316 318 319 319 320 320 321 320 319 322 325 324 325 325 323 323 323 321 318 317 316 316 315 315 317 320 316 316 318 311 308 311 310 311 315 315 311 310 313 313 312 314 315 319 321 314 313 313 310 309 311 316 317 311 310 312 313 315 319 323 324 324 322 323 322 313 309 313 316 316 315 312 312 311 307 305 305 304 303 302 301 300 298 298 297
308 309 311 312 314 317 319 319 319 320 319 319 323 325 324 325 324 322 323 323 322 321 319 318 319 320 318 317 318 314 316 319 314 311 313 313 316 319 319 315 309 311 314 315 317 316 318 322 318 314 312 309 310 314 318 319 315 312 311 312 313 318 323 322 321 323 322 321 318 314 315 316 315 314 312 311 309 306 305 304 302 302 300 299 298 297 296 296
306 307 308 310 312 314 316 318 319 319 318 320 323 324 324 323 321 323 322 319 320 322 321 320 321 320 320 319 318 314 315 318 317 316 316 316 317 318 321 319 312 310 313 317 322 322 320 323 320 313 308 308 311 312 314 318 317 312 310 313 314 317 320 319 319 321 319 319 320 318 318 317 316 317 314 312 310 306 305 303 301 300 299 298 297 296 295 294
305 305 306 308 310 312 314 317 319 318 318 321 323 322 322 321 319 322 322 318 317 319 320 321 320 319 319 319 318 316 315 316 316 317 317 316 316 316 318 317 313 311 312 317 322 323 321 322 320 315 312 311 308 308 312 315 314 311 312 316 315 314 315 314 316 319 319 320 321 320 320 320 320 319 314 311 312 308 305 301 299 298 297 297 296 294 294 293
305 306 308 308 308 309 313 316 317 317 318 320 320 320 320 320 319 320 320 318 317 318 319 319 319 319 319 318 318 317 316 317 317 317 319 317 315 317 317 316 315 312 311 314 318 319 319 321 321 319 318 313 305 306 311 312 310 311 312 313 313 315 315 314 315 318 320 322 321 320 320 319 320 320 315 313 313 310 305 301 298 296 296 295 295 294 293 293
305 309 311 309 307 308 311 315 316 317 319 318 317 318 318 317 318 318 318 318 318 318 318 318 317 318 318 318 319 319 316 317 317 316 318 317 316 316 315 315 315 311 309 311 315 316 316 319 321 318 315 312 308 309 313 312 310 308 309 310 310 313 315 315 315 317 320 321 322 322 322 321 319 318 315 313 310 307 304 300 297 296 295 294 294 293 293 292
307 310 312 310 309 308 311 315 316 317 319 317 316 317 317 316 316 316 315 316 317 318 317 318 318 318 319 319 318 319 319 318 318 317 318 318 317 316 314 315 315 311 308 309 312 314 313 316 319 317 314 313 313 312 313 314 313 309 309 311 310 311 314 315 314 316 318 319 321 323 322 322 318 313 311 309 305 303 302 299 297 296 295 294 293 293 293 292
307 311 312 311 310 310 312 315 316 317 318 317 317 316 315 316 316 315 315 314 316 316 316 318 319 318 319 319 318 319 320 319 319 319 319 318 317 316 313 311 313 312 311 311 312 312 313 314 315 317 316 315 316 315 313 314 315 313 312 312 312 314 315 315 316 317 317 317 319 320 320 323 317 309 306 304 302 301 299 298 297 295 295 294 293 293 292 292
308 309 309 310 311 311 313 315 315 316 317 317 317 316 315 316 316 316 315 314 315 317 316 316 318 318 319 318 317 318 320 320 319 318 319 317 316 315 311 307 310 314 313 314 314 311 310 311 313 315 316 316 317 316 313 312 313 315 316 315 318 319 316 316 318 319 318 318 318 319 320 320 312 304 302 300 299 299 297 297 296 295 294 294 293 293 292 292
308 308 307 309 311 312 313 314 315 316 316 316 316 316 315 316 317 315 315 315 316 317 317 317 317 316 317 317 317 317 318 318 317 317 318 318 317 312 307 306 309 314 314 315 315 311 309 311 314 315 315 316 317 314 312 312 312 315 316 315 318 319 317 317 316 316 317 319 319 319 321 320 309 300 299 298 297 296 296 296 296 294 293 293 293 293 292 292
305 305 305 306 309 312 314 314 316 316 315 315 315 315 315 315 316 315 314 316 317 316 317 317 316 316 316 316 315 316 317 316 316 315 316 319 316 307 305 307 309 311 314 314 314 313 312 314 315 316 317 317 317 316 314 313 313 313 314 313 314 315 315 315 313 312 314 317 319 318 320 321 310 300 298 298 297 296 295 294 294 294 293 293 292 292 292 292
302 302 304 304 304 308 312 312 314 315 315 314 314 314 315 314 313 314 314 314 315 315 316 316 315 315 315 315 314 315 315 315 315 315 314 316 314 307 304 306 306 308 310 309 309 310 312 313 314 315 317 317 317 317 316 314 312 311 312 312 312 311 312 313 313 314 315 316 317 316 317 317 310 302 300 300 297 296 294 293 293 292 292 292 292 292 292 292
302 302 305 306 305 307 309 308 310 314 314 314 314 313 312 312 312 312 313 313 313 314 315 315 313 313 314 314 314 314 314 314 314 314 313 314 314 309 304 303 304 305 306 306 306 308 310 311 313 314 315 314 315 315 312 310 310 311 312 312 311 310 309 309 311 313 314 313 314 313 313 314 311 308 308 306 300 296 294 293 293 292 292 291 291 291 291 291
303 304 304 305 306 307 307 306 308 311 311 312 314 313 311 312 312 311 312 313 312 311 313 313 312 313 313 313 313 313 313 313 312 312 312 312 312 309 303 303 303 302 304 305 305 307 309 310 311 312 312 312 313 311 309 307 307 308 309 309 309 308 307 307 308 309 309 310 311 310 310 311 309 308 309 307 301 297 295 294 293 293 292 292 291 291 291 291
300 302 300 300 304 306 307 307 306 307 308 308 310 311 311 311 311 311 311 310 309 310 312 312 311 311 310 310 311 312 312 311 310 311 312 310 309 308 305 304 302 300 302 304 303 305 307 308 308 310 310 309 308 307 306 304 305 305 305 305 305 304 305 305 305 305 305 307 307 307 307 307 306 306 306 302 297 295 294 293 293 293 292 292 292 292 291 291
297 298 296 296 300 302 302 302 302 303 306 306 307 308 310 310 310 309 309 308 308 308 309 310 309 307 306 306 308 308 309 309 308 309 310 309 307 306 305 304 301 299 299 301 303 305 306 306 306 306 306 306 305 304 304 304 303 303 302 303 302 302 302 302 302 302 302 303 303 303 303 303 303 304 301 296 293 293 293 292 293 293 292 293 292 292 292 291
296 297 296 296 298 297 297 298 299 301 303 304 306 307 307 308 308 307 307 307 307 308 307 307 306 304 304 306 307 306 306 307 307 306 306 306 305 303 303 303 302 300 299 300 302 304 305 305 304 303 303 304 303 303 303 302 302 301 301 301 300 300 300 300 300 300 300 301 301 300 301 302 300 298 296 294 293 292 292 292 292 292 292 292 292 293 293 292
294 295 295 297 298 297 296 297 298 300 301 301 303 304 305 305 304 304 305 302 302 305 305 303 302 301 302 303 303 304 304 304 304 303 302 302 302 301 301 301 300 299 299 300 301 302 302 302 302 302 303 303 302 302 301 299 299 299 299 299 298 299 299 299 300 300 300 300 300 300 301 301 298 294 293 293 292 291 291 291 291 291 292 292 292 292 293 293
293 293 294 296 297 296 296 296 296 298 299 299 301 301 301 300 299 300 303 299 296 298 299 298 298 299 300 301 301 302 302 300 299 298 297 297 297 297 297 297 297 297 298 299 299 300 300 301 301 301 302 302 302 300 297 297 297 298 298 298 298 298 298 298 299 299 299 299 299 299 299 298 296 294 292 292 292 291 291 291 291 291 291 291 291 292 292 292
Wind_Speed
4 4 5 5 5 5 5 5 5 5 5 5 5 5 5 5 5 5 5 5 5 5 5 5 5 5 5 6 7 8 9 9 7 6 8 7 5 8 9 4 6 13 14 10 11 10 8 7 7 6 6 4 1 0 1 1 1 2 2 3 4 4 3 4 7 5 0 4 4 3 5 7 6 2 1 2 6 9 10 11 9 9 11 15 14 11 10 9
5 5 5 5 5 5 5 5 6 5 5 5 6 6 6 6 6 7 6 6 7 6 6 6 6 6 5 6 7 8 11 11 7 9 10 6 3 6 8 8 7 11 14 13 13 11 8 7 7 6 5 3 0 0 2 1 1 3 2 3 5 4 2 3 6 5 4 7 6 2 4 5 6 3 1 5 9 7 11 15 10 11 15 17 17 17 16 12
5 6 6 5 5 5 5 5 5 5 5 6 6 7 7 8 8 8 8 8 8 8 8 8 7 7 6 6 7 8 11 9 7 6 7 6 4 3 5 9 9 11 15 13 13 12 6 7 9 7 4 2 1 1 2 2 2 3 2 5 7 5 3 4 6 7 7 7 8 7 2 4 6 2 2 6 11 9 12 16 11 12 15 14 14 15 14 12
5 5 5 5 5 5 6 6 5 5 5 6 6 7 7 8 9 9 9 9 10 10 10 9 9 8 7 7 6 8 10 8 4 5 10 7 2 1 3 8 9 12 14 12 11 10 5 7 9 4 3 3 1 1 3 3 2 2 4 8 5 2 4 6 8 9 6 3 7 7 4 7 5 3 5 6 8 11 13 15 15 15 15 14 11 9 10 10
4 4 5 5 5 5 6 6 6 6 6 6 6 6 7 7 8 9 9 9 10 10 11 10 10 9 8 7 6 7 8 5 1 8 9 3 1 1 2 7 10 12 14 11 10 10 7 8 7 2 2 4 2 2 5 5 2 2 7 11 6 2 5 6 5 5 3 1 5 6 7 7 2 3 9 9 9 12 12 14 16 15 15 15 13 5 6 8
5 5 5 5 5 5 6 6 6 6 6 6 6 7 8 8 8 9 10 10 10 10 11 11 10 9 8 7 5 4 4 4 2 7 6 4 4 3 3 8 11 14 15 12 11 11 7 7 7 4 3 4 5 6 4 5 3 6 8 9 9 6 7 6 1 2 3 3 6 6 7 5 4 9 10 12 16 17 17 19 19 18 16 12 9 6 6 9
6 6 6 6 5 5 6 6 6 6 7 7 7 8 9 9 10 10 10 11 10 10 11 10 10 9 8 5 2 1 2 6 7 7 7 9 8 5 6 9 13 16 16 14 13 10 7 8 8 4 4 4 6 8 3 4 4 7 8 6 7 6 9 8 1 1 3 6 8 5 7 10 13 11 6 12 19 22 22 21 20 21 18 9 7 11 12 12
7 7 7 7 7 6 6 7 7 7 7 8 8 9 9 10 10 11 11 12 11 10 10 9 9 8 6 2 2 2 3 10 13 11 11 12 10 7 9 11 15 17 16 15 13 10 7 8 8 4 5 6 3 5 3 3 6 9 11 7 3 4 8 7 3 4 6 8 7 5 11 19 17 8 8 16 19 21 21 21 20 19 18 11 11 15 14 14
7 7 7 8 8 8 7 7 7 8 8 9 10 10 11 11 11 12 12 13 12 12 10 9 8 6 4 1 1 4 5 11 14 12 12 12 10 9 11 13 17 19 15 14 12 10 8 8 9 6 5 4 3 3 3 5 6 7 10 8 5 8 9 6 5 8 8 7 5 7 17 21 10 4 15 21 20 21 18 20 19 15 16 13 12 14 14 15
7 8 8 8 8 8 8 7 7 8 9 10 10 11 12 12 13 13 13 14 14 13 11 9 7 4 3 3 3 6 5 7 9 8 9 9 10 11 14 13 17 20 14 12 12 11 9 6 5 3 2 0 3 3 3 5 2 0 4 8 9 12 10 5 8 10 8 8 9 12 19 20 3 2 14 14 10 12 12 15 16 11 13 12 11 12 12 13
8 9 9 8 8 8 7 7 8 9 10 10 10 11 12 13 13 14 14 14 15 14 12 10 7 5 3 4 6 7 3 4 6 7 8 9 10 12 15 14 17 20 13 9 13 14 8 3 8 5 1 2 3 3 3 4 2 3 3 9 11 12 12 9 11 11 8 7 10 13 17 18 5 4 17 14 3 4 7 13 14 11 11 11 12 11 9 10
7 9 8 7 7 7 7 8 9 10 10 10 11 12 13 13 14 14 14 14 14 14 13 10 7 5 4 4 9 10 8 7 7 8 10 10 10 12 14 14 16 19 14 7 11 16 9 5 11 6 1 3 1 2 3 1 1 3 3 9 12 11 16 14 12 8 7 6 6 9 10 14 11 12 21 15 3 4 8 13 15 13 11 10 11 10 9 10
7 8 7 6 6 7 8 8 10 11 11 11 13 13 14 14 15 15 14 13 13 12 11 9 7 5 3 4 6 10 14 13 11 12 11 11 10 11 12 12 14 17 15 7 5 11 11 8 10 5 1 3 2 1 1 2 1 4 2 4 9 10 12 8 5 2 4 5 8 8 6 9 12 16 18 7 2 5 9 13 14 13 10 9 10 8 9 10
6 6 6 6 6 7 8 9 11 12 12 13 14 14 15 15 15 14 12 11 10 10 9 7 6 6 3 5 4 5 10 11 12 13 12 12 10 8 8 8 12 14 12 8 3 4 10 10 6 2 1 3 1 2 2 1 1 4 2 2 5 7 7 1 5 4 4 4 10 9 8 9 11 15 12 1 2 6 9 14 14 12 10 8 9 9 10 12
5 4 4 5 5 7 8 9 11 12 13 14 14 16 16 13 12 10 9 8 6 5 4 5 8 7 1 7 6 5 6 6 9 12 13 13 10 6 6 8 9 9 8 6 3 2 9 9 5 2 1 0 1 4 5 2 2 3 3 5 4 5 7 6 3 7 8 2 7 9 7 8 11 14 8 2 1 6 9 14 14 14 14 12 12 11 12 14
4 4 4 4 5 7 8 10 12 13 13 14 16 16 12 8 8 7 5 3 1 4 5 6 10 6 3 4 2 3 3 4 7 10 11 13 11 6 7 9 7 6 5 4 4 7 9 7 2 1 0 1 4 5 4 4 4 4 5 8 6 7 7 7 7 7 8 2 5 12 9 8 8 11 9 2 3 7 10 16 18 18 16 14 13 11 12 14
4 4 4 4 5 7 9 11 13 14 14 15 17 13 6 6 6 5 4 5 7 9 6 5 9 4 3 3 3 3 3 5 6 6 9 11 11 9 9 7 5 7 9 8 8 8 5 3 1 0 2 3 3 3 4 5 6 5 6 7 7 9 8 6 8 4 4 6 8 12 12 13 12 14 15 11 11 14 16 19 21 19 16 15 12 12 13 12
4 5 5 5 6 8 10 12 14 16 15 16 16 8 4 5 5 7 8 9 10 9 6 6 6 2 4 4 3 2 3 3 5 4 7 9 10 12 9 6 6 9 10 5 4 4 1 1 2 3 4 4 4 5 6 8 10 8 5 6 6 7 9 9 10 5 2 7 8 10 13 15 16 16 17 19 18 18 20 20 19 17 18 16 12 13 12 9
5 6 7 8 8 9 11 12 14 16 15 16 13 4 3 4 4 6 5 4 4 2 0 3 5 2 2 3 2 0 3 5 5 4 7 10 11 11 7 6 7 7 7 4 4 5 3 3 3 4 6 9 10 11 13 14 11 7 5 7 8 8 9 11 13 8 6 11 12 13 18 17 15 14 14 17 17 16 20 21 17 15 15 14 14 13 8 5
7 8 9 9 9 10 11 12 14 15 15 16 12 2 1 2 0 1 1 2 4 5 5 4 8 5 6 5 1 1 3 4 3 3 8 11 12 10 5 4 5 3 5 5 5 4 3 6 7 8 11 13 14 15 17 13 6 5 5 8 10 10 11 12 14 9 1 7 11 13 19 19 17 17 13 15 17 19 23 21 16 14 13 13 15 10 4 4
8 9 10 10 8 9 10 11 12 13 12 14 10 2 1 2 2 2 3 6 8 8 9 11 10 10 12 5 3 2 0 2 1 3 8 11 11 9 5 6 6 5 4 3 3 3 3 8 9 14 14 8 6 8 9 9 8 9 8 9 10 9 12 12 13 11 1 4 9 10 18 19 16 19 17 18 19 20 21 19 16 16 16 14 9 4 5 5
7 9 11 10 8 9 9 9 11 10 10 12 10 5 2 2 2 1 2 5 7 7 10 11 5 9 14 7 3 1 3 4 2 4 8 10 6 5 5 7 7 5 4 4 2 2 5 9 12 15 9 2 2 1 2 7 10 11 8 8 9 7 11 11 9 8 1 2 8 11 16 16 16 22 21 18 17 17 17 16 17 19 17 10 5 7 6 5
8 8 9 8 8 8 8 10 10 8 9 10 9 5 2 2 2 2 1 4 6 5 5 6 3 6 9 7 4 5 5 8 4 2 9 10 3 2 5 8 7 3 5 8 8 6 5 6 11 14 6 2 5 2 2 7 7 9 8 8 8 6 8 8 4 1 1 5 9 13 15 13 14 16 12 10 10 12 14 16 18 15 8 4 7 6 4 3
8 7 8 7 7 7 8 11 7 7 10 7 7 5 4 2 0 2 2 2 4 4 1 2 4 4 4 3 3 7 7 5 2 2 9 10 5 3 4 6 5 4 7 12 12 12 8 1 1 7 6 8 11 6 5 8 8 9 9 8 11 11 11 11 6 4 7 7 5 10 12 8 5 3 1 1 3 7 12 15 12 3 7 7 6 2 2 2
8 8 9 7 6 6 8 9 3 6 10 3 4 7 5 3 1 3 2 2 3 2 1 3 2 2 1 1 0 3 4 3 1 1 4 5 2 3 2 2 3 6 9 11 11 12 9 2 3 3 4 7 9 7 8 9 9 8 7 10 15 15 14 15 11 7 8 5 1 7 9 3 1 1 5 7 4 9 12 9 3 8 11 6 4 1 1 3
10 10 9 8 6 6 7 3 1 7 7 2 3 7 4 4 1 3 1 2 3 1 2 2 1 1 1 1 2 1 4 3 1 2 2 1 1 1 2 2 1 3 5 5 5 5 4 1 1 2 3 4 5 7 10 10 8 8 4 8 13 13 12 12 9 5 5 4 1 3 6 6 4 4 6 8 8 14 14 6 2 7 8 5 3 3 4 6
10 10 9 7 6 4 4 1 2 6 4 0 5 7 5 5 2 2 2 2 3 1 2 0 0 0 0 1 1 1 2 1 1 1 2 0 1 1 3 3 2 1 2 2 3 2 3 1 1 2 4 4 5 8 8 10 8 5 1 2 5 7 8 6 5 5 4 5 2 4 5 8 7 3 4 5 9 15 13 6 4 9 10 5 5 6 7 8
11 10 9 8 7 6 4 3 3 3 2 3 7 7 6 5 1 1 2 3 2 2 1 0 2 2 1 0 1 1 1 1 1 1 2 1 1 2 4 5 4 3 4 4 5 1 2 2 3 6 5 5 8 6 5 11 8 2 4 2 0 1 3 3 4 5 3 5 4 5 5 6 7 2 2 4 8 11 7 7 9 12 10 4 6 10 10 11
11 11 11 11 10 9 7 6 4 3 4 4 6 7 7 6 2 0 1 3 1 2 1 1 3 1 1 1 0 2 1 1 1 1 1 0 1 1 2 2 2 2 2 4 7 3 1 1 3 6 6 6 5 1 1 8 5 1 4 3 3 2 1 2 3 3 2 5 5 6 8 6 8 2 3 2 3 5 5 8 12 13 9 5 8 12 13 12
8 8 8 9 9 8 7 7 6 4 3 2 4 7 7 4 2 2 4 3 1 1 1 1 2 0 1 3 1 1 1 1 2 1 1 1 2 2 0 0 0 2 2 4 7 4 1 1 1 4 4 2 2 5 3 1 0 1 2 1 0 2 1 1 2 1 3 7 4 10 13 8 6 1 3 0 1 2 3 6 11 11 8 7 10 12 12 11
5 5 7 8 8 7 5 3 5 4 3 1 5 6 4 1 1 4 5 2 1 0 2 1 1 1 1 2 1 0 2 1 1 2 1 2 3 2 2 2 1 2 3 3 5 3 2 3 3 2 1 1 4 3 2 2 1 1 1 2 3 2 1 2 1 1 5 6 1 5 7 9 8 2 2 3 3 2 2 3 7 8 8 9 10 11 10 9
5 5 7 9 9 8 5 2 3 5 4 2 4 3 1 1 3 5 2 1 2 2 2 1 1 1 2 0 1 1 1 1 1 2 2 2 2 4 4 4 2 2 3 2 1 2 3 5 3 1 1 4 4 3 2 3 3 3 2 2 4 3 2 3 2 2 5 4 1 2 1 5 9 5 5 10 6 3 3 4 6 9 10 11 11 11 10 10
5 5 7 10 11 10 9 5 4 4 2 2 1 2 2 3 5 3 3 2 1 1 2 1 1 1 2 2 2 2 1 1 3 2 2 2 2 3 4 3 3 2 3 1 2 4 3 1 3 3 2 5 8 6 3 3 5 6 4 4 3 4 4 5 3 3 5 2 3 2 0 4 7 4 8 12 4 9 9 8 11 14 13 11 11 10 10 11
4 5 6 9 11 12 11 9 7 5 4 4 2 2 3 7 3 2 4 5 2 1 1 2 1 1 2 3 2 3 2 2 4 3 2 2 2 3 3 3 4 1 1 2 2 3 5 4 4 6 2 7 10 7 2 3 4 5 2 1 3 4 4 6 5 5 8 5 0 2 2 4 3 1 1 1 8 12 11 13 14 14 11 9 9 10 10 12
4 5 6 7 10 11 11 10 7 7 7 5 2 2 7 8 2 2 4 4 2 2 1 0 1 1 3 3 1 2 3 2 3 3 2 3 2 3 3 4 7 5 2 2 2 2 6 7 4 2 2 9 10 5 4 4 1 1 1 1 3 3 3 4 7 6 6 7 4 4 3 4 2 3 4 3 11 13 13 14 13 12 11 10 10 11 11 11
5 6 6 9 11 11 11 11 9 10 9 4 2 6 7 5 3 3 2 2 1 1 2 2 1 3 5 3 1 1 3 2 2 3 3 3 3 3 3 1 7 10 7 3 2 2 4 5 4 4 1 6 5 2 4 2 1 2 2 4 3 2 3 4 6 2 1 6 6 4 6 7 5 6 4 7 12 13 13 13 12 12 12 11 10 9 9 9
5 6 6 10 13 12 12 12 13 13 7 2 5 7 3 2 4 4 3 2 1 2 0 3 2 3 4 2 2 3 3 2 3 3 3 2 2 4 4 2 5 12 11 5 3 3 4 6 2 6 5 3 2 2 1 1 0 3 3 3 1 1 1 2 3 0 2 7 6 5 11 10 6 4 3 9 9 10 11 9 10 10 9 10 9 8 9 9
4 4 5 8 13 14 13 15 17 13 5 1 9 10 4 2 3 3 3 2 0 1 2 5 4 2 4 5 3 3 4 4 4 3 3 3 3 4 4 3 4 9 8 4 2 2 2 6 3 6 7 2 4 1 3 2 1 1 2 1 0 2 3 3 3 2 4 7 4 6 12 10 7 6 4 5 4 8 8 6 9 9 8 8 7 7 8 7
5 3 2 5 11 15 17 19 17 10 4 6 11 9 5 5 4 3 3 2 1 2 4 8 6 4 5 5 3 1 3 4 3 2 3 3 4 3 2 2 2 2 3 2 2 1 1 5 4 1 1 2 4 3 5 5 3 1 1 1 0 2 4 3 2 2 4 7 6 6 8 6 4 3 3 5 6 6 5 6 8 8 7 6 5 5 5 4
5 2 1 2 8 16 20 19 13 7 6 8 8 6 3 2 3 3 2 2 3 2 3 6 6 7 6 4 4 2 2 3 3 4 4 3 5 4 1 2 1 1 2 1 3 2 1 5 6 0 2 1 4 5 6 8 6 4 5 5 4 2 1 2 2 2 3 5 6 6 6 4 0 2 5 7 6 5 6 7 6 5 6 5 5 5 4 4
3 2 1 2 8 17 21 15 7 6 7 7 8 7 3 2 2 1 1 2 3 1 1 3 5 6 5 4 5 2 1 3 4 5 5 5 9 6 2 3 3 2 2 1 1 2 1 3 5 3 2 5 5 3 4 6 4 3 4 5 5 4 2 4 5 3 3 4 4 5 6 2 2 3 5 7 5 6 6 6 6 6 6 6 5 5 4 4
2 2 2 3 13 22 17 8 5 5 6 7 6 5 4 2 2 2 1 1 2 1 1 2 4 6 5 6 7 4 3 4 5 6 6 6 10 7 2 4 3 3 2 1 1 1 0 1 4 5 6 8 5 2 1 2 2 1 2 2 2 1 2 6 7 3 3 4 4 6 7 2 1 3 5 7 5 6 6 6 6 5 4 5 4 4 4 3
3 2 2 3 16 24 13 5 7 6 6 5 2 3 4 2 2 2 1 1 2 2 1 2 3 6 7 6 7 6 5 5 7 8 6 4 5 3 4 5 2 2 1 1 1 1 2 2 4 5 6 8 5 3 3 2 1 1 3 3 3 4 4 6 5 3 3 5 4 6 6 2 1 0 5 7 6 6 5 3 5 5 3 3 2 3 3 3
2 1 1 1 12 18 10 4 7 8 8 6 5 8 7 3 3 4 2 3 3 1 2 2 2 5 5 2 3 6 4 4 5 6 4 2 0 2 3 4 1 1 1 1 1 1 2 2 2 4 5 5 5 3 1 1 1 1 2 1 2 4 5 6 4 2 4 6 7 8 7 1 3 4 5 7 7 6 4 3 3 3 3 2 2 2 2 2
2 1 1 1 2 6 5 2 4 7 9 9 10 12 9 4 2 4 6 6 5 3 3 3 2 3 4 1 1 3 4 5 5 2 2 2 0 2 3 5 3 2 1 2 2 1 2 1 1 4 6 5 5 5 2 1 1 2 2 3 3 3 3 5 4 5 5 5 7 8 6 2 2 5 6 7 8 7 5 3 2 2 2 1 1 2 2 2
1 1 1 1 1 0 1 1 1 5 7 8 9 10 13 12 4 2 6 7 6 6 6 3 2 3 3 3 3 5 6 6 5 3 3 3 1 2 2 4 5 4 1 1 2 0 2 2 4 6 8 8 8 7 2 1 1 4 4 4 5 2 2 4 4 5 4 3 5 7 6 6 4 5 8 5 7 7 6 5 3 2 1 0 1 2 2 2
1 1 2 2 1 2 2 1 2 3 2 4 6 4 9 12 6 2 5 3 2 4 4 3 3 3 4 3 4 6 5 4 4 5 6 5 1 1 1 2 4 6 3 1 2 1 2 4 6 9 11 10 10 7 2 0 3 5 5 7 9 7 6 7 8 7 6 6 7 6 7 9 9 11 14 7 3 6 5 5 4 4 3 3 3 4 5 4
0 1 1 1 1 3 3 2 3 3 2 2 2 2 4 7 6 4 2 1 1 1 2 2 1 1 0 1 0 2 2 2 2 3 2 2 1 2 1 2 2 4 3 0 1 1 3 6 7 8 10 9 7 6 4 3 5 6 6 9 11 13 13 12 12 12 10 10 10 10 12 15 15 15 12 4 4 3 3 2 2 3 4 5 5 6 6 5
1 1 1 2 1 1 1 1 3 2 5 4 2 4 5 7 9 7 1 2 2 1 1 4 1 3 3 2 2 2 4 4 4 3 1 1 1 0 2 2 1 2 3 1 2 1 2 5 4 4 8 8 7 9 7 6 7 9 10 12 13 16 18 15 14 15 15 15 15 16 20 21 16 8 1 5 4 1 1 1 3 4 5 6 7 7 7 6
0 1 1 1 2 2 2 2 3 1 4 4 5 5 5 8 13 9 1 0 5 4 2 4 3 3 2 2 2 4 5 3 6 5 1 1 1 1 1 2 1 2 3 1 2 2 3 3 1 0 5 7 8 10 10 8 9 11 12 13 16 18 18 16 16 15 15 16 18 19 22 18 7 3 5 3 2 1 1 3 4 5 6 6 7 8 8 8
2 2 1 1 2 3 2 1 2 2 3 4 6 5 5 8 8 4 0 1 2 4 3 2 2 3 2 3 3 4 3 3 4 4 3 2 3 1 0 0 1 2 3 1 1 2 3 3 1 2 5 6 7 10 10 8 9 12 14 17 19 18 16 15 14 12 12 13 14 15 14 8 1 4 2 1 2 2 4 5 4 4 5 6 7 9 9 9
2 3 1 1 1 2 3 2 3 4 3 2 3 2 2 3 0 1 3 1 5 3 3 4 4 2 2 4 3 2 3 4 3 2 2 2 4 3 3 4 4 4 2 1 1 2 3 3 3 4 5 6 9 8 5 5 9 11 11 13 16 17 17 16 14 14 15 13 10 9 6 1 4 4 1 0 2 4 6 5 5 5 5 6 7 9 10 10
Wind_Direction
18 18 15 14 8 4 2 359 357 0 3 359 356 351 347 348 344 345 345 344 344 343 344 349 355 358 357 350 343 332 324 313 289 250 242 258 249 220 221 220 191 199 200 181 173 162 148 167 164 158 164 156 315 334 143 10 159 219 225 236 251 246 228 196 207 205 241 293 260 169 180 240 269 239 191 244 234 243 264 261 228 223 242 240 246 255 255 260
11 8 4 1 356 356 350 349 346 341 345 343 339 335 335 334 331 331 330 333 332 328 329 333 337 340 343 340 340 332 323 312 278 250 246 234 198 215 224 222 204 198 194 183 180 170 164 179 166 167 182 187 260 32 220 191 202 228 220 241 246 245 213 195 223 210 218 273 286 263 187 230 271 295 51 265 265 252 266 272 241 230 244 240 240 241 244 246
7 3 357 350 349 348 342 344 338 331 331 330 330 327 326 324 323 323 322 326 324 322 323 324 328 330 330 330 333 332 324 307 276 244 204 168 169 221 228 218 208 196 194 192 190 186 186 176 165 172 191 213 150 139 223 172 197 226 216 246 248 244 236 220 232 226 231 270 288 278 215 238 256 244 221 259 274 267 260 269 257 246 254 248 233 222 224 228
4 358 352 346 346 343 341 339 332 327 319 319 323 317 315 314 314 314 314 317 317 317 316 318 322 323 323 324 328 334 324 293 270 165 155 143 125 174 227 214 198 192 195 197 194 191 179 150 157 170 203 214 138 187 224 189 193 182 201 245 254 235 251 232 222 232 240 267 274 276 288 271 261 194 226 242 269 265 253 258 257 255 266 271 255 212 197 214
357 348 343 341 345 344 341 334 330 327 316 316 314 307 304 302 304 304 304 306 309 310 309 313 317 319 320 317 323 336 326 302 171 150 160 155 26 342 239 207 191 188 189 191 180 169 155 144 150 143 213 220 166 195 222 187 169 208 220 248 258 199 258 248 212 231 229 217 258 259 272 281 300 215 227 223 248 260 259 266 266 263 269 275 276 244 189 215
349 340 334 334 341 339 338 333 328 323 319 320 313 308 304 301 303 301 301 302 304 305 306 311 314 319 319 313 317 325 309 297 184 177 200 252 286 301 226 194 184 184 185 183 161 156 155 153 176 184 204 232 206 215 222 162 174 248 235 241 251 235 248 257 151 184 179 210 247 250 280 297 262 260 239 216 238 253 262 271 274 277 277 276 282 265 227 227
345 339 332 330 332 329 331 328 328 326 326 324 315 312 306 306 304 301 302 301 302 302 305 311 313 317 317 312 290 290 259 260 255 235 247 260 267 268 211 187 181 184 182 176 161 169 168 169 200 196 202 233 221 220 208 148 186 251 254 242 251 247 249 261 265 205 218 240 253 274 301 279 255 264 245 219 239 251 259 266 270 276 279 277 274 263 252 243
338 335 331 329 331 328 327 327 333 333 328 323 316 313 308 306 303 301 302 299 300 299 301 306 309 316 314 292 242 261 212 248 265 264 264 261 255 238 203 181 183 186 184 185 177 175 171 184 199 169 220 234 208 208 175 189 208 227 250 257 252 258 258 268 275 246 251 252 255 276 275 266 261 272 265 246 247 253 256 263 265 269 273 270 265 262 258 253
329 330 329 329 332 330 330 335 339 334 329 323 317 315 310 307 303 301 300 298 298 295 298 299 300 311 297 183 210 266 238 254 270 270 266 255 244 225 196 184 188 186 187 197 186 173 178 201 202 186 241 239 193 209 170 218 227 215 245 271 274 276 277 277 272 250 246 245 219 238 260 264 269 304 273 255 245 253 255 261 264 262 266 266 262 258 254 253
328 330 332 334 336 335 342 348 347 340 333 327 322 318 312 308 303 299 298 295 294 292 292 289 287 287 261 164 210 260 260 268 272 263 260 247 234 208 193 196 193 187 187 194 188 184 192 205 174 160 293 276 204 209 165 214 251 152 267 290 278 277 281 256 259 255 243 246 214 221 258 265 260 87 271 256 220 244 252 258 262 254 259 262 257 255 250 249
335 335 337 342 344 350 1 2 358 350 343 338 330 324 317 311 304 299 297 293 290 288 285 280 273 259 219 175 228 257 271 273 270 258 254 242 224 203 200 203 196 192 187 185 199 200 205 171 127 119 291 171 195 192 203 239 337 10 325 296 278 277 280 244 244 251 232 242 213 214 255 266 252 188 255 260 180 212 250 262 264 253 253 256 256 257 250 246
337 335 339 349 356 8 16 12 7 359 352 346 334 328 320 312 306 302 298 293 290 285 280 273 258 230 185 212 241 248 255 257 262 261 252 234 215 206 206 207 202 200 196 191 213 212 211 157 155 182 220 150 203 213 235 278 3 319 305 291 288 288 285 260 244 238 209 223 177 188 250 262 239 225 245 255 229 222 249 263 266 261 256 257 261 261 256 251
337 337 345 0 13 22 20 15 10 3 358 348 336 330 321 313 308 303 298 293 288 283 275 264 244 201 187 255 240 242 253 251 250 255 248 230 213 208 210 211 206 206 211 216 233 219 208 179 180 206 138 190 241 114 163 102 135 272 246 283 296 289 284 262 226 202 203 202 155 172 252 263 241 242 249 246 178 231 246 256 263 264 259 258 260 262 265 260
339 344 355 10 23 23 18 14 8 5 358 346 338 331 322 315 309 305 302 295 288 277 264 246 216 169 182 264 264 263 260 248 243 244 242 228 209 204 208 208 206 209 218 224 270 234 199 177 160 158 143 238 289 99 226 189 196 276 280 244 271 270 278 231 144 155 233 193 158 191 255 268 264 269 267 166 147 247 261 261 263 265 262 259 259 259 266 266
340 352 2 12 21 15 13 11 6 4 357 348 340 332 325 317 315 316 309 300 291 263 224 184 171 155 224 268 265 280 264 246 238 236 239 225 206 198 197 192 193 201 209 216 249 182 173 163 143 180 170 81 259 250 261 282 231 245 270 254 224 231 264 283 235 203 235 239 159 199 250 262 257 271 274 96 158 241 261 271 273 271 267 265 264 260 263 268
329 343 351 359 6 6 8 5 3 2 358 351 341 335 331 330 336 336 328 317 250 152 144 152 157 157 283 266 246 275 241 223 229 235 234 218 211 203 169 161 154 159 160 149 136 130 144 153 158 270 221 206 228 241 263 278 256 216 234 258 249 245 266 289 286 238 218 202 192 215 248 269 253 271 274 235 247 251 264 277 278 277 274 269 266 262 259 265
319 325 329 339 347 356 1 1 1 360 359 353 344 342 353 4 6 19 55 94 115 118 118 144 148 154 265 236 256 262 201 212 226 232 220 206 206 191 154 131 117 120 113 107 121 124 126 153 175 293 206 234 218 210 250 258 255 229 217 244 253 254 264 281 287 291 171 185 220 226 239 257 260 275 282 279 278 277 278 279 278 279 277 273 270 266 261 264
310 317 318 325 338 349 354 357 359 358 0 354 347 354 33 26 52 76 84 104 109 110 105 118 142 201 234 201 256 249 134 179 197 192 195 186 181 177 157 129 131 129 123 117 137 149 170 167 199 225 210 224 204 198 229 235 244 252 242 256 271 249 246 257 265 297 300 244 247 247 247 255 259 262 271 277 279 279 278 275 275 275 274 277 276 270 271 276
320 331 332 328 333 343 348 353 357 357 360 358 352 4 64 38 90 93 81 101 114 161 81 138 185 263 294 247 289 269 140 146 159 158 162 160 160 160 141 126 137 144 152 162 179 179 180 158 180 219 217 219 209 205 222 233 250 279 295 282 286 276 255 257 262 269 291 280 271 268 268 273 274 264 262 274 281 280 275 273 272 270 273 279 274 272 286 306
330 335 337 331 332 339 343 347 353 357 0 1 358 338 90 26 209 113 20 271 246 262 300 249 222 263 297 293 4 149 172 158 161 155 154 154 151 142 119 118 130 168 185 172 173 166 187 198 193 212 224 225 216 213 228 246 293 321 295 276 274 277 273 269 273 272 260 278 272 267 275 282 283 278 270 271 275 272 270 271 274 277 278 274 272 284 337 3
316 326 331 327 333 341 341 343 349 357 2 7 11 15 75 11 312 336 324 277 253 248 257 244 228 246 263 293 59 96 343 215 141 111 153 154 152 159 158 155 163 193 190 134 124 109 201 218 212 223 232 240 235 230 245 265 287 277 267 276 271 268 273 271 276 283 283 269 273 270 279 284 285 282 273 262 262 264 268 276 284 282 276 272 282 335 29 11
292 313 325 328 351 356 349 350 350 355 4 19 37 61 65 354 292 311 315 285 268 239 237 246 251 259 263 289 331 321 327 266 209 114 154 151 164 202 165 167 194 198 149 135 157 167 213 227 228 232 237 18 2 335 273 255 260 263 259 269 270 270 282 276 264 276 307 265 285 294 290 289 282 274 270 264 259 260 267 272 272 270 269 281 356 31 14 344
272 295 313 324 353 353 348 353 351 360 10 31 54 65 38 342 262 224 248 280 283 252 228 248 255 255 266 284 254 213 235 250 249 175 166 158 174 213 165 185 202 173 157 188 210 221 225 230 234 238 233 219 247 214 220 255 253 247 245 258 268 269 279 274 246 270 3 266 288 303 293 285 273 262 264 271 257 256 263 257 255 261 276 338 36 31 347 331
261 276 289 302 332 329 333 344 351 10 9 38 64 44 31 12 218 188 242 260 279 276 219 215 232 241 265 298 210 193 209 227 258 199 174 173 169 152 185 198 188 189 202 208 219 235 242 124 208 241 220 219 239 224 218 255 256 237 229 246 265 264 262 267 278 329 310 270 283 311 296 285 271 234 82 351 235 256 258 248 254 315 55 61 66 63 286 332
256 259 263 272 291 297 321 339 11 8 357 46 59 22 35 33 102 175 260 284 262 263 153 173 215 234 218 38 107 195 192 173 321 326 174 197 180 135 178 182 198 223 213 210 224 244 254 98 102 222 198 209 230 229 221 233 258 258 217 222 250 264 268 273 290 322 308 272 59 342 315 302 173 105 356 338 303 274 258 240 285 44 63 73 83 90 348 17
251 243 245 252 255 280 319 344 51 350 355 107 15 2 18 17 47 183 246 305 255 222 117 184 195 157 143 44 6 226 174 152 341 5 128 228 255 149 215 148 179 253 210 205 230 255 261 121 110 219 175 173 204 241 231 216 250 272 215 213 242 259 267 273 290 301 290 290 44 4 308 287 262 245 289 298 270 263 259 249 28 61 66 64 72 61 57 54
236 227 231 238 235 263 312 303 299 334 358 117 341 348 349 5 38 203 246 284 268 138 101 246 176 92 98 5 317 221 175 113 91 101 97 268 172 166 235 196 180 259 146 184 264 235 199 160 90 156 167 167 202 244 223 189 226 267 121 201 238 251 257 256 271 260 272 316 301 192 229 271 284 251 236 248 244 258 271 300 18 75 80 76 82 66 52 46
225 225 234 241 241 252 263 261 295 324 318 315 331 331 338 358 3 244 273 282 283 108 93 68 126 107 79 291 310 86 46 357 119 81 26 341 173 162 230 227 218 209 159 199 253 243 143 191 185 168 175 200 217 242 185 174 210 285 70 57 135 229 256 221 245 257 275 317 281 185 184 259 284 244 194 246 249 263 297 7 40 69 76 68 76 65 46 37
229 232 238 243 245 246 246 248 255 270 287 314 330 326 338 341 302 229 224 261 285 99 75 112 151 104 27 207 118 79 101 357 40 24 20 98 31 41 247 238 219 220 183 218 251 265 105 206 212 183 198 224 219 336 85 181 209 43 101 89 82 93 76 173 251 276 274 280 261 171 174 254 292 240 166 255 270 293 347 50 69 79 75 42 51 55 44 38
226 225 225 225 231 235 235 242 246 254 277 319 351 345 339 321 264 216 218 229 337 65 120 179 174 29 274 182 120 61 175 69 65 70 71 131 108 67 13 210 163 216 211 239 254 256 129 104 252 212 220 248 101 61 27 166 91 61 137 81 54 170 117 171 250 302 270 269 230 173 184 219 284 303 135 253 313 320 359 59 76 86 77 44 44 48 42 40
215 206 197 200 215 215 202 231 237 210 176 56 5 351 332 326 194 224 228 229 320 267 140 160 213 153 171 146 75 65 163 132 126 157 152 153 152 143 196 216 200 209 222 234 242 238 174 185 219 215 187 106 105 102 69 98 103 197 203 316 287 243 212 205 175 150 251 266 194 160 190 211 238 252 62 338 309 254 258 22 53 77 72 49 48 49 42 40
205 199 190 192 204 205 194 178 151 159 156 58 9 355 15 311 239 219 215 348 289 205 153 187 249 160 142 143 307 138 144 179 160 159 163 174 185 181 204 214 192 253 268 220 230 266 216 204 200 161 182 178 172 172 129 130 166 196 206 259 275 283 270 237 223 209 244 264 56 35 344 229 243 262 279 282 305 27 33 22 55 75 69 53 51 48 41 37
203 195 189 193 201 205 207 195 157 163 161 102 63 50 100 241 243 195 166 223 239 114 99 96 46 144 160 283 287 136 120 202 159 173 173 161 241 218 225 228 166 246 284 240 315 301 267 222 154 174 209 185 187 198 205 187 177 186 199 201 232 276 284 273 274 268 267 295 64 47 334 251 262 266 255 262 317 47 56 66 72 72 67 60 54 48 44 42
217 205 198 199 204 206 208 205 198 201 175 138 108 86 197 230 240 120 187 214 247 353 75 114 91 160 181 268 275 171 222 242 147 161 180 157 235 235 234 223 177 165 328 231 287 267 263 286 183 180 157 157 189 213 195 113 151 189 196 182 245 263 270 277 276 271 281 294 135 149 182 243 255 60 245 293 53 57 67 75 74 73 72 68 57 45 40 41
229 217 213 211 211 209 205 200 193 185 170 143 104 190 220 229 195 139 208 219 277 316 319 152 119 285 237 223 254 197 230 249 131 135 194 188 219 235 225 201 185 179 170 217 244 180 244 263 186 148 99 158 184 204 132 110 135 208 97 129 255 229 187 251 261 260 292 297 254 194 218 250 257 296 267 116 79 73 72 68 67 66 60 55 46 36 31 32
242 236 231 220 217 211 203 197 182 172 165 140 183 218 228 234 191 177 189 163 151 131 328 304 195 262 269 224 194 193 199 222 156 162 210 205 233 236 230 207 181 185 183 190 232 194 249 261 144 89 296 187 181 160 155 186 220 145 163 203 217 152 159 231 258 261 324 280 263 227 251 262 265 281 265 119 98 84 72 60 58 53 47 50 45 32 29 30
238 235 231 222 217 205 197 195 178 167 155 135 231 230 234 240 217 202 165 138 125 114 70 289 231 242 275 260 213 179 178 205 175 188 213 202 233 209 206 248 177 191 205 209 246 234 255 274 178 148 213 222 49 39 189 282 169 141 186 207 153 62 126 217 251 202 208 252 262 256 264 270 266 267 107 109 102 86 79 71 67 58 51 56 50 36 32 28
204 213 237 235 218 199 190 189 175 158 127 202 240 245 248 238 230 206 164 146 303 135 195 246 241 220 253 259 254 156 176 204 168 183 213 201 219 168 172 242 180 192 221 218 257 268 247 270 249 177 206 174 83 227 229 199 177 185 258 235 107 251 229 188 203 217 223 243 251 242 258 269 258 240 163 126 87 73 82 79 68 60 56 58 54 47 38 28
165 161 251 232 204 193 186 181 171 153 147 210 230 240 234 237 245 222 177 154 173 172 220 241 235 231 244 242 246 149 190 207 158 191 224 204 229 193 155 256 199 196 261 205 226 266 176 257 269 128 205 104 115 202 216 196 162 90 278 270 69 257 252 212 181 194 224 247 252 235 244 254 253 244 164 110 70 64 71 69 63 58 62 64 61 55 43 37
157 156 258 188 182 187 180 172 167 172 194 212 225 225 213 252 255 224 191 218 222 192 228 236 222 232 248 239 239 238 216 216 204 235 240 222 255 261 63 12 343 31 357 298 252 253 176 244 249 315 30 200 192 199 205 206 199 185 210 220 207 204 260 266 231 189 214 245 248 236 236 233 17 56 104 98 76 70 71 74 73 64 66 64 55 51 37 32
165 171 203 143 164 172 168 167 180 194 204 225 234 228 229 262 257 237 121 207 236 249 265 234 225 243 262 266 256 233 177 227 225 240 245 237 252 261 56 18 334 30 48 354 282 274 269 258 254 253 245 234 225 194 206 217 205 198 209 212 217 202 188 245 237 195 204 238 236 245 248 221 44 40 101 110 104 103 97 95 87 65 59 57 47 41 32 26
185 156 132 149 166 165 163 176 198 196 216 229 230 227 230 246 245 235 87 118 227 255 323 243 243 249 254 261 264 254 240 248 239 239 242 240 246 251 17 10 354 41 26 315 329 319 300 280 275 260 248 258 268 68 42 286 63 51 251 231 266 239 188 235 241 223 225 229 222 248 251 216 28 15 93 112 114 105 102 104 100 89 71 64 50 38 32 27
190 147 79 136 168 169 170 194 197 201 223 220 223 234 227 241 248 219 135 160 218 228 249 242 242 246 245 252 258 253 249 249 242 241 246 252 247 258 347 353 15 52 0 281 266 263 189 220 266 260 255 271 269 122 81 18 75 250 251 227 244 251 238 246 256 276 256 231 221 244 246 194 124 141 113 115 114 105 101 110 117 125 119 93 73 48 35 16
151 148 46 130 173 179 189 203 195 207 218 217 232 234 227 227 228 231 232 219 215 208 232 244 249 243 242 242 242 242 245 250 247 238 237 267 267 90 1 339 351 111 342 330 310 281 253 258 289 284 268 264 252 211 143 80 107 273 277 278 294 283 279 277 265 268 251 224 225 247 256 213 138 158 140 126 125 118 109 106 116 126 128 127 113 77 41 6
110 153 280 315 180 190 212 226 205 212 214 221 233 237 239 240 219 235 240 234 228 211 219 253 251 227 233 224 217 237 234 242 255 230 178 246 262 89 18 355 21 75 85 28 30 325 272 267 241 275 269 258 267 271 260 91 38 327 314 337 351 355 323 304 274 258 252 215 221 249 267 295 125 163 177 158 142 137 131 122 110 100 95 63 47 32 3 358
150 148 179 269 10 32 238 321 237 216 211 216 228 237 242 244 245 211 221 233 236 221 225 251 223 205 223 214 219 241 236 229 234 237 243 262 241 105 38 15 36 40 42 31 25 195 238 247 225 248 265 271 284 290 290 76 308 283 292 304 304 298 301 304 274 263 292 309 272 264 278 293 279 232 236 208 142 142 154 155 156 154 158 214 296 302 308 308
208 158 144 168 185 202 221 237 202 211 194 199 215 236 238 235 232 199 206 223 233 219 231 231 198 216 227 213 227 245 244 226 216 233 257 267 252 93 63 80 48 12 353 330 343 208 225 258 239 241 254 262 273 279 276 66 257 256 268 277 278 275 268 262 256 265 306 308 277 271 280 281 275 273 278 283 115 130 145 155 169 182 197 214 232 250 257 263
334 124 107 319 251 204 214 210 180 196 203 187 213 267 244 223 216 210 200 109 73 238 246 219 160 62 337 79 163 244 287 305 249 220 241 276 352 41 24 99 75 4 358 293 294 164 235 264 254 252 262 264 272 275 259 261 266 259 259 264 273 276 269 263 262 269 279 273 270 286 287 277 276 281 288 327 80 101 103 123 175 200 219 227 240 252 255 263
67 104 10 347 341 126 131 80 94 175 218 211 223 253 246 241 242 236 145 57 272 266 252 237 205 63 43 60 96 243 280 295 271 246 133 35 353 354 291 266 153 37 30 8 298 231 227 253 243 257 271 269 272 274 271 276 276 270 265 263 267 270 268 269 269 266 263 261 265 274 272 268 274 285 340 89 95 103 86 237 231 230 237 237 242 254 260 269
99 144 74 70 90 79 56 51 76 135 225 222 233 244 239 244 250 248 193 268 252 245 259 256 229 105 95 110 128 242 262 263 263 263 157 135 262 203 272 267 174 25 8 349 289 290 266 250 140 233 279 271 271 276 280 284 278 274 273 266 261 262 264 266 266 262 259 258 257 258 259 262 270 71 91 111 138 167 257 259 251 242 244 245 248 254 257 261
65 34 46 109 127 127 117 98 123 176 218 215 224 241 243 242 247 247 218 26 289 260 252 214 153 121 139 164 180 243 240 165 217 234 157 184 266 315 31 282 54 351 330 282 269 306 285 277 14 321 281 268 273 282 288 294 284 271 266 260 255 254 254 253 252 252 253 255 254 253 256 259 166 100 85 162 181 252 280 280 281 270 254 250 257 265 264 260
95 41 35 91 117 144 147 136 154 186 213 208 207 212 223 242 306 166 211 104 55 44 75 104 117 127 207 229 239 231 184 159 180 209 182 232 269 272 248 246 250 250 240 244 293 270 247 263 291 287 276 271 275 282 306 319 288 266 253 251 250 249 251 251 247 248 251 254 260 262 265 254 126 131 94 146 204 276 297 299 297 296 285 269 265 270 271 268